This demonstration page uses our WeatherBlox Daily Observations layout. Learn more.

Left ArrowRight Arrow

39.29038, -76.61219

Hourly Observations for April 13, 2021

Temp ( °F °C ) Dew Point ( °F °C ) Humidity (%) Winds ( mph kmh ) Pressure ( in mb ) Visibility ( mi km ) Precip ( " mm )
12:54 am 00:54 Cloudy 50 10 44 6.7 80 80 Calm 29.95 1014 10 16.0934 0 0
1:54 am 01:54 Cloudy 50 10 44 6.7 80 80 Calm 29.95 1014 10 16.0934 0 0
2:54 am 02:54 Cloudy 51 10.6 44 6.7 77 77 Calm 29.95 1014 10 16.0934 0 0
3:37 am 03:37 Cloudy 50 10 44 6.7 80 80 Calm 29.96 1015 10 16.0934 0.001 0.001
3:54 am 03:54 Cloudy 50 10 45 7.2 83 83 WSW 3 6 29.96 1015 8 12.87472 0.001 0.001
4:54 am 04:54 Cloudy 50 10 46 7.8 86 86 Calm 29.97 1015 10 16.0934 0 0
5:35 am 05:35 Cloudy 50 10 45 7.2 83 83 Calm 29.99 1016 10 16.0934 0 0
5:54 am 05:54 Cloudy 50 10 45 7.2 83 83 Calm 29.98 1015 10 16.0934 0 0
6:54 am 06:54 Cloudy 50 10 45 7.2 83 83 W 6 9 30.02 1017 10 16.0934 0 0
7:40 am 07:40 Cloudy 51 10.6 45 7.2 80 80 WNW 5 7 30.04 1017 10 16.0934 0 0
7:54 am 07:54 Cloudy 51 10.6 45 7.2 80 80 NNW 3 6 30.04 1017 10 16.0934 0 0
8:54 am 08:54 Cloudy 52 11.1 44 6.7 75 75 NNE 7 11 30.05 1018 10 16.0934 0 0
9:54 am 09:54 Mostly Cloudy 54 12.2 45 7.2 72 72 NE 8 13 30.06 1018 10 16.0934 0 0
10:54 am 10:54 Cloudy 56 13.3 45 7.2 67 67 VRB 3 6 30.08 1019 10 16.0934 0 0
11:31 am 11:31 Mostly Cloudy 59 15 46 7.8 62 62 N 8 13 30.08 1019 10 16.0934 0 0
11:54 am 11:54 Mostly Cloudy 59 15 45 7.2 60 60 N 7 11 30.08 1019 10 16.0934 0 0
12:54 pm 12:54 Mostly Cloudy 61 16.1 46 7.8 58 58 NE 8 13 30.06 1018 10 16.0934 0 0
1:54 pm 13:54 Mostly Cloudy 62 16.7 46 7.8 56 56 Calm 30.06 1018 10 16.0934 0 0
2:54 pm 14:54 Mostly Cloudy 62 16.7 47 8.3 58 58 E 7 11 30.05 1018 10 16.0934 0 0
3:54 pm 15:54 Mostly Cloudy 63 17.2 47 8.3 56 56 Calm 30.04 1017 10 16.0934 0 0
4:54 pm 16:54 Mostly Cloudy 66 18.9 47 8.3 50 50 NE 8 13 30.03 1017 10 16.0934 0 0
5:54 pm 17:54 Partly Cloudy 66 18.9 46 7.8 49 49 NE 6 9 30.04 1017 10 16.0934 0 0
6:54 pm 18:54 Partly Cloudy 65 18.3 45 7.2 49 49 Calm 30.04 1017 10 16.0934 0 0
7:54 pm 19:54 Partly Cloudy 60 15.6 46 7.8 60 60 ESE 5 7 30.04 1017 10 16.0934 0 0
8:54 pm 20:54 Mostly Clear 59 15 47 8.3 64 64 SSW 3 6 30.06 1018 10 16.0934 0 0
9:54 pm 21:54 Clear 53 11.7 46 7.8 77 77 WSW 3 6 30.07 1018 10 16.0934 0 0
10:54 pm 22:54 Mostly Clear 52 11.1 46 7.8 80 80 WSW 6 9 30.09 1019 10 16.0934 0 0
11:54 pm 23:54 Mostly Clear 54 12.2 46 7.8 75 75 SW 3 6 30.09 1019 10 16.0934 0 0

Powered by AerisWeather